Location: Crocus Hill
(18.2167°N, 63.0667°W)
Time: 03:29:14
(UTC+00:00)

Cosmos 1844 Rocket - Pass Details

Date: 26 January 2020
Orbit: 824 x 845 km, 71.0° (Epoch: 17 February)

Event Time Altitude Azimuth Distance (km) Brightness Sun altitude
Rises 00:25:26 0° 199° (SSW) 3,346 6.2 -33.6°
Reaches altitude 10° 00:27:52 10° 200° (SSW) 2,413 5.4 -34.2°
Enters shadow 00:30:01 25° 202° (SSW) 1,617 4.4 -34.7°
